Location: Alameda Bible Church
(35.1550°N, 106.6400°W)
Time: 01:38:51
(UTC+00:00)

Daily predictions for brighter satellites

Satellite Brightness Start Highest point End
(mag) Time Altitude Azimuth Time Altitude Azimuth Time Altitude Azimuth
Genesis I 3.3 00:24:01 10° SSW 00:28:02 89° WNW 00:32:04 10° NNE
Starlink Launch 2 Placeholder 2.2 00:25:35 10° NW 00:28:02 88° NNE 00:30:29 10° SE
ALOS 4.3 00:24:47 10° SSW 00:29:00 34° W 00:33:15 10° NNW
Lacrosse 4 Rocket 3.2 00:30:58 10° SE 00:33:04 14° ESE 00:35:10 10° ENE
Cosmos 2227 Rocket 3.5 00:31:41 10° NNE 00:35:35 19° ENE 00:39:27 10° E
BREEZE M DEB (TANK) 3.7 00:33:22 10° WNW 00:36:09 48° SW 00:43:41 10° SE
Cosmos 2297 Rocket 3.4 00:32:07 10° N 00:36:14 20° ENE 00:40:21 10° ESE
Okean O Rocket 4.0 00:33:53 10° SSW 00:37:42 29° W 00:41:32 10° NW
SMAP 3.0 00:33:43 10° SSE 00:38:21 80° ENE 00:43:00 10° N
CORIOLIS 4.2 00:33:23 10° SSE 00:38:41 66° ENE 00:44:03 10° N
Cosmos 1818 3.8 00:33:47 10° NNW 00:39:14 79° WSW 00:44:37 10° SSE
Cosmos 1743 Rocket 3.5 00:36:44 10° N 00:41:06 78° E 00:45:27 10° S
Cosmos 1805 Rocket 4.4 00:37:59 10° NNE 00:41:43 27° ENE 00:45:27 10° SE
CZ-3 Stage 3 3.0 00:41:22 10° WSW 00:44:00 25° S 00:45:41 10° ESE
Meteor 1-27 4.3 00:39:18 10° S 00:44:54 89° W 00:50:37 10° N
Cosmos 1238 Rocket 2.8 00:42:34 10° N 00:46:57 64° E 00:50:32 10° SSE
CZ-4 R/B 2.3 00:52:35 10° SE 00:56:14 29° ENE 00:59:49 10° NNE
Cosmos 1437 4.2 00:53:57 10° NNW 00:56:51 38° W 00:59:43 10° SSW
COBE Rocket 4.0 00:52:20 10° N 00:57:08 78° WNW 01:01:48 10° SSW
Cosmos 2233 Rocket 4.1 00:53:03 10° N 00:59:23 86° W 01:05:40 10° S
Envisat 3.0 00:55:42 10° SSE 01:00:40 60° ENE 01:05:41 10° N
Meteor 2-3 Rocket 4.1 00:57:36 10° NNW 01:03:23 72° W 01:09:05 10° S
Cosmos 1869 3.2 01:01:30 10° S 01:05:27 88° ESE 01:09:25 10° N
Cosmos 1500 Rocket 4.3 01:02:23 10° NNW 01:06:41 57° W 01:10:55 10° S
Cosmos 1697 Rocket 3.2 01:04:46 10° S 01:09:57 39° ESE 01:14:08 15° NE
CZ-3 Stage 3 3.3 01:06:16 10° W 01:12:16 27° SW 01:14:46 10° SSE
Cosmos 1633 Rocket 4.0 01:09:31 10° NNE 01:13:13 26° ENE 01:16:54 10° SE
IUS-18 SRM-1 4.1 01:09:19 10° W 01:16:29 31° SSW 01:18:51 13° SE
COSMO-SKYMED 1 2.6 01:12:41 10° N 01:17:03 85° WNW 01:21:23 10° SSW
Cosmos 1464 Rocket 4.1 01:12:38 10° N 01:18:36 50° E 01:24:29 10° SSE
Cosmos 1666 Rocket 3.9 01:18:09 10° N 01:22:17 40° E 01:26:21 10° SSE
Meteor 2-20 Rocket 4.4 01:18:14 10° S 01:24:19 87° W 01:30:29 10° N
Cosmos 1328 Rocket 4.0 01:20:22 10° SSE 01:24:26 37° E 01:25:46 30° NE
ATLAS 5 CENTAUR R/B 2.9 01:19:33 10° NNW 01:25:12 41° NE 01:28:50 23° ESE
SeaSat 1 2.8 01:20:42 10° SSE 01:25:35 68° WSW 01:30:31 10° NNW
Cosmos 2112 Rocket 4.5 01:21:04 10° SSE 01:25:45 36° E 01:27:18 29° ENE
Cosmos 1072 Rocket 4.4 01:20:24 10° N 01:26:30 65° E 01:32:36 10° SSE
OE (NEXTSAT) 4.2 01:23:37 10° NW 01:27:05 75° NNE 01:27:55 48° ESE
ERBS 2.2 01:23:59 10° SW 01:27:18 85° NW 01:28:13 45° NE
USA 40 PKM 4.2 01:23:23 10° NW 01:27:51 89° NE 01:29:52 23° SE
Sich 1 2.9 01:26:05 10° N 01:30:26 73° E 01:34:47 10° SSE
USA 215 4.3 01:31:03 23° NE 01:32:46 26° NNE 01:37:56 10° NNW
Cosmos 1680 Rocket 3.6 01:28:51 10° S 01:33:53 53° ESE 01:36:22 28° NE
Cosmos 1151 Rocket 3.2 01:31:31 10° SSE 01:35:39 45° E 01:35:54 45° E
Cosmos 2084 3.3 01:33:45 10° NNW 01:38:00 66° ENE 01:39:02 46° ESE
NOSS 2-3 (E) 3.5 01:34:30 10° SSW 01:38:40 66° ESE 01:39:52 45° NE
NOAA 11 4.3 01:34:41 10° SE 01:39:50 47° ENE 01:45:01 10° N
USA 229 DEB 4.4 01:34:14 10° SW 01:40:31 48° NW 01:47:04 10° NNE
USA 229 4.4 01:34:22 10° SW 01:40:37 48° NW 01:47:09 10° NNE
Okean-O 4.4 01:37:03 10° SSW 01:41:01 33° W 01:45:02 10° NNW
YAOGAN 1 2.4 01:37:03 10° SSE 01:41:21 78° ENE 01:45:40 10° N
Ariane Rocket 4.5 01:46:14 21° NNE 01:46:14 21° NNE 01:48:14 10° N
ATLAS 5 CENTAUR R/B 3.9 01:39:28 10° SSW 01:44:00 25° SSE 01:49:14 19° ESE
Cosmos 1633 2.4 01:41:05 10° N 01:44:44 85° E 01:48:22 10° S
NOSS 3-1 (A) 3.4 01:40:21 10° SW 01:45:41 71° WNW 01:49:49 21° NNE
CSL-04 Debris 4.1 01:41:22 10° SSE 01:46:51 86° ENE 01:52:23 10° NNW
NOSS 3-1 (C) 4.3 01:42:37 10° WSW 01:47:44 42° NW 01:53:05 12° NNE
NOSS 2-3 (D) 3.4 01:43:46 10° SSW 01:47:59 76° ESE 01:48:43 59° NE
YAOGAN 6 3.8 01:48:42 10° S 01:52:02 41° W 01:55:22 10° NNW
Cosmos 2219 3.9 01:51:05 10° NNW 01:56:32 52° WSW 02:01:56 10° S
Cosmos 923 Rocket 4.3 01:52:14 10° SSW 01:57:26 67° WNW 02:01:08 19° N
Cosmos 1607 3.8 01:52:07 10° NNW 01:58:23 84° ENE 02:02:08 26° SSE
Cosmos 1862 4.1 01:54:34 10° N 02:03:08 - S 01:57:11 40° NNW
CSL-04 Rocket 4.1 02:02:55 10° S 02:08:15 60° WSW 02:13:32 10° NNW
Lacrosse 4 Rocket 2.5 02:07:31 10° SW 02:11:22 38° WNW 02:11:55 36° NW
Cosmos 1980 Rocket 2.1 02:07:01 10° SSW 02:12:21 72° SE 02:12:21 72° SE
Cosmos 2034 Rocket 4.0 02:07:13 10° N 02:13:36 81° W 02:19:57 10° S
Cosmos 2227 Rocket 2.7 02:14:26 10° NNW 02:19:59 56° WSW 02:25:13 11° S
Cosmos 2297 Rocket 2.9 02:15:06 10° NNW 02:20:33 51° WSW 02:25:59 10° S
Tsikada Rocket 4.2 02:20:14 10° SSW 02:26:31 71° W 02:32:55 10° N
CZ-4 R/B 4.2 02:28:15 10° SW 02:31:13 19° W 02:34:09 10° NW
Cosmos 2082 4.5 02:40:18 10° NNW 02:44:40 47° WNW 02:44:40 47° WNW
Centaur D-1A AC-31 3.4 02:43:49 10° SW 02:45:00 21° SW 02:45:00 21° SW
Centaur D-1AR AC-36 4.4 02:34:19 10° WSW 02:50:32 27° S 02:51:45 26° S
ATLAS 5 CENTAUR R/B 3.8 03:04:18 10° NW 03:09:53 35° WSW 03:10:31 34° SW
Cosmos 2082 Rocket 4.2 10:22:54 23° ESE 10:23:00 23° E 10:27:25 10° NE
Lacrosse 4 Rocket 4.5 10:41:40 11° ESE 10:41:40 11° ESE 10:41:54 10° ESE
Milstar 3 Cent rocket 4.2 10:41:27 37° S 10:41:27 37° S 10:46:32 10° SE
Cosmos 1833 Rocket 4.2 10:48:21 29° NE 10:48:21 29° NE 10:51:09 10° NNE
Centaur D-1AR AC-39 4.2 10:54:22 17° SSE 10:54:22 17° SSE 10:57:22 10° SE
ISS -0.1 11:00:17 10° E 11:00:17 10° E 11:00:17 10° E
Cosmos 1980 Rocket 4.4 11:05:05 10° N 11:09:18 21° ENE 11:13:28 10° ESE
NOSS 3-1 (A) 4.1 11:13:05 61° WSW 11:13:05 61° WSW 11:21:38 10° SSE
Lacrosse 5 2.6 11:24:02 44° NNE 11:24:02 44° NNE 11:27:35 10° NE
Cosmos 2369 4.3 11:22:24 28° N 11:25:18 56° ENE 11:30:54 10° SE
CZ-2C R/B 2.3 11:23:12 10° NNE 11:28:06 78° ESE 11:28:33 70° SSE
MSX 4.3 11:25:25 10° N 11:29:27 44° NNW 11:29:27 44° NNW
CZ-4B R/B 4.4 11:30:33 10° NNE 11:35:02 69° E 11:39:29 10° S
Meteor 2-10 Rocket 3.8 11:36:25 54° SW 11:36:25 54° SW 11:41:01 10° S
Atlas Centaur 2 2.9 11:40:54 23° SSE 11:40:54 23° SSE 11:43:02 10° SE
Cosmos 1934 Rocket 4.0 11:34:52 10° SSW 11:40:58 55° W 11:47:12 10° N
STARLINK-80 4.1 11:41:50 48° SSE 11:42:08 49° SE 11:45:51 10° NE
Cosmos 1076 Rocket 3.9 11:39:01 10° S 11:43:18 64° E 11:47:37 10° NNE
Cosmos 2278 4.2 11:41:13 15° NNW 11:46:00 61° ENE 11:51:37 10° SSE
SL-27 R/B 3.6 11:44:20 10° S 11:47:27 40° ESE 11:50:35 10° NNE
Cosmos 839 Rocket 4.2 11:43:30 18° SW 11:49:28 66° WNW 11:55:55 10° NNE
Cosmos 1697 Rocket 2.6 11:46:59 23° NNW 11:50:33 85° ENE 11:56:09 10° SSE
Cosmos 2058 3.6 11:46:28 10° S 11:50:34 55° E 11:54:41 10° NNE
STARLINK-48 4.3 11:51:50 29° S 11:53:27 48° SE 11:57:12 10° ENE
Meteor 1-11 4.4 11:53:19 44° W 11:53:45 45° WNW 11:59:16 10° N
PAYLOAD A 4.3 11:49:12 10° N 11:54:17 47° WNW 11:54:52 45° W
APEX 3.8 11:53:51 35° NNE 11:54:48 48° ENE 11:58:33 10° SE
